Date String (YYYY-MM-DD hh:mm:ss) UTC,Instrument flags,Ambient pressure (hPa),Sample flow (lpm),Bypass flow (lpm),Sample temperature (°C),Ambient temperature (°C),ASC tube jacket temperature (°C),LED temperature (°C),Box temperature (°C),Sample RH (%),Span deviation,Mass concentration (μg/m³),Mass concentration (μg/m³),Mass concentration (μg/m³)
DateTimeUTC,F1_M11,P_M11,Q1_M11,Q2_M11,T1_M11,T2_M11,T3_M11,T4_M11,T5_M11,U1_M11,ZSPAN_M11,X0_M11,X2_M11,X1_M11
2022-07-16 19:00:00,,0829.9,4.99,0.00,29.6,27.5,00.0,38.1,31.3,30.9,0000.0,0007.44,0003.87,0003.58
2022-07-16 19:01:00,,0829.9,5.00,0.00,29.6,27.1,00.0,38.1,31.3,31.0,0000.0,0007.62,0003.83,0003.53
2022-07-16 19:02:00,,0829.9,5.00,0.00,29.5,27.1,00.0,38.1,31.2,31.1,0000.0,0008.68,0003.78,0003.49
2022-07-16 19:03:00,,0829.9,5.00,0.00,29.4,27.2,00.0,38.1,31.1,30.9,0000.0,0008.87,0003.81,0003.49
2022-07-16 19:04:00,,0829.9,5.00,0.00,29.4,27.3,00.0,38.1,31.1,31.0,0000.0,0008.87,0003.81,0003.49
2022-07-16 19:05:00,,0829.9,5.00,0.00,29.4,27.6,00.0,38.1,31.1,30.7,0000.0,0008.62,0003.78,0003.48
2022-07-16 19:06:00,,0829.8,5.00,0.00,29.4,27.8,00.0,38.1,31.2,29.9,0000.0,0008.26,0003.73,0003.45
2022-07-16 19:07:00,,0829.8,5.00,0.00,29.5,28.0,00.0,38.1,31.3,30.0,0000.0,0008.78,0003.66,0003.41
2022-07-16 19:08:00,,0829.8,4.99,0.00,29.5,28.0,00.0,38.1,31.3,29.7,0000.0,0008.64,0003.62,0003.37
2022-07-16 19:09:00,,0829.8,5.01,0.00,29.5,27.4,00.0,38.0,31.3,29.7,0000.0,0008.62,0003.62,0003.34
2022-07-16 19:10:00,,0829.8,4.99,0.00,29.5,27.0,00.0,38.0,31.2,29.7,0000.0,0008.55,0003.58,0003.31
2022-07-16 19:11:00,,0829.8,5.00,0.00,29.4,27.0,00.0,38.0,31.1,29.7,0000.0,0008.50,0003.55,0003.28
2022-07-16 19:12:00,,0829.8,5.00,0.00,29.3,27.1,00.0,38.0,31.0,29.9,0000.0,0008.20,0003.51,0003.27
2022-07-16 19:13:00,,0829.8,5.01,0.00,29.3,27.3,00.0,38.0,31.0,30.4,0000.0,0006.78,0003.48,0003.24
2022-07-16 19:14:00,,0829.8,5.00,0.00,29.3,27.5,00.0,38.0,31.1,30.6,0000.0,0006.58,0003.43,0003.20
2022-07-16 19:15:00,,0829.8,5.00,0.00,29.3,27.7,00.0,38.0,31.1,30.0,0000.0,0007.41,0003.40,0003.17
2022-07-16 19:16:00,,0829.8,5.00,0.00,29.4,27.9,00.0,38.0,31.2,29.9,0000.0,0007.59,0003.40,0003.15
2022-07-16 19:17:00,,0829.9,5.01,0.00,29.4,28.1,00.0,38.1,31.3,29.7,0000.0,0007.50,0003.43,0003.15
2022-07-16 19:18:00,,0829.9,4.99,0.00,29.4,28.1,00.0,38.1,31.4,29.5,0000.0,0006.39,0003.46,0003.15
2022-07-16 19:19:00,,0829.8,5.00,0.00,29.4,27.7,00.0,38.0,31.3,29.9,0000.0,0006.35,0003.46,0003.16
2022-07-16 19:20:00,,0829.8,4.99,0.00,29.4,27.2,00.0,38.0,31.3,30.1,0000.0,0006.24,0003.45,0003.16
2022-07-16 19:21:00,,0829.8,4.99,0.00,29.4,27.1,00.0,38.0,31.2,30.6,0000.0,0006.30,0003.48,0003.18
2022-07-16 19:22:00,,0829.8,5.01,0.00,29.3,27.2,00.0,38.0,31.0,30.8,0000.0,0006.42,0003.49,0003.18
2022-07-16 19:23:00,,0829.8,4.99,0.00,29.3,27.3,00.0,38.0,31.0,30.8,0000.0,0006.67,0003.52,0003.20
2022-07-16 19:24:00,,0829.8,5.01,0.00,29.3,27.6,00.0,38.0,31.1,31.0,0000.0,0006.80,0003.56,0003.24
2022-07-16 19:25:00,,0829.8,5.01,0.00,29.3,27.8,00.0,38.0,31.2,30.9,0000.0,0006.79,0003.59,0003.27
2022-07-16 19:26:00,,0829.8,4.99,0.00,29.4,28.0,00.0,38.0,31.2,31.1,0000.0,0006.18,0003.64,0003.30
2022-07-16 19:27:00,,0829.8,4.99,0.00,29.4,28.2,00.0,38.1,31.3,31.2,0000.0,0006.24,0003.68,0003.33
2022-07-16 19:28:00,,0829.8,5.00,0.00,29.4,28.3,00.0,38.1,31.4,31.1,0000.0,0006.87,0003.69,0003.35
2022-07-16 19:29:00,,0829.7,5.00,0.00,29.5,27.8,00.0,38.0,31.4,31.6,0000.0,0006.81,0003.70,0003.38
2022-07-16 19:30:00,,0829.7,5.00,0.00,29.4,27.3,00.0,38.0,31.3,31.5,0000.0,0006.99,0003.75,0003.41
2022-07-16 19:31:00,,0829.7,5.00,0.00,29.4,27.1,00.0,38.0,31.2,31.6,0000.0,0007.18,0003.79,0003.44
2022-07-16 19:32:00,,0829.7,5.00,0.00,29.3,27.2,00.0,38.0,31.1,31.6,0000.0,0007.13,0003.81,0003.46
2022-07-16 19:33:00,,0829.7,5.00,0.00,29.3,27.4,00.0,38.0,31.1,31.7,0000.0,0007.06,0003.83,0003.48
2022-07-16 19:34:00,,0829.7,5.00,0.00,29.3,27.6,00.0,38.0,31.1,31.8,0000.0,0006.85,0003.83,0003.50
2022-07-16 19:35:00,,0829.7,4.99,0.00,29.3,27.8,00.0,38.0,31.2,32.3,0000.0,0006.89,0003.83,0003.51
2022-07-16 19:36:00,,0829.6,5.01,0.00,29.4,28.0,00.0,38.0,31.3,31.8,0000.0,0007.26,0003.86,0003.52
2022-07-16 19:37:00,,0829.6,5.01,0.00,29.4,27.9,00.0,38.0,31.3,31.6,0000.0,0007.65,0003.88,0003.54
2022-07-16 19:38:00,,0829.6,5.00,0.00,29.4,27.4,00.0,38.0,31.3,31.8,0000.0,0007.98,0003.90,0003.56
2022-07-16 19:39:00,,0829.7,4.99,0.00,29.4,27.1,00.0,37.9,31.2,31.6,0000.0,0007.49,0003.89,0003.56
2022-07-16 19:40:00,,0829.7,5.00,0.00,29.3,27.1,00.0,37.9,31.1,31.4,0000.0,0007.46,0003.88,0003.57
2022-07-16 19:41:00,,0829.8,5.00,0.00,29.3,27.2,00.0,37.9,31.0,31.2,0000.0,0007.40,0003.86,0003.57
2022-07-16 19:42:00,,0829.8,5.00,0.00,29.3,27.4,00.0,38.0,31.0,31.1,0000.0,0007.33,0003.84,0003.57
2022-07-16 19:43:00,,0829.8,4.99,0.00,29.3,27.6,00.0,38.0,31.1,31.2,0000.0,0007.40,0003.86,0003.57
2022-07-16 19:44:00,,0829.8,5.01,0.00,29.3,27.8,00.0,38.0,31.2,31.9,0000.0,0007.45,0003.88,0003.57
2022-07-16 19:45:00,,0829.8,4.99,0.00,29.3,28.0,00.0,38.0,31.3,30.8,0000.0,0007.99,0003.91,0003.58
2022-07-16 19:46:00,,0829.8,5.01,0.00,29.3,27.6,00.0,37.9,31.2,29.5,0000.0,0008.68,0003.95,0003.59
2022-07-16 19:47:00,,0829.8,4.99,0.00,29.3,27.1,00.0,37.9,31.2,29.9,0000.0,0008.80,0004.02,0003.60
2022-07-16 19:48:00,,0829.7,5.00,0.00,29.3,26.9,00.0,37.9,31.1,31.1,0000.0,0008.49,0004.03,0003.62
2022-07-16 19:49:00,,0829.8,5.00,0.00,29.2,27.0,00.0,37.9,31.0,30.8,0000.0,0008.07,0004.02,0003.64
2022-07-16 19:50:00,,0829.8,5.00,0.00,29.2,27.2,00.0,37.9,31.0,29.9,0000.0,0008.30,0004.06,0003.66
2022-07-16 19:51:00,,0829.7,5.00,0.00,29.2,27.5,00.0,37.9,31.0,28.0,0000.0,0008.69,0004.13,0003.69
2022-07-16 19:52:00,,0829.8,4.99,0.00,29.2,27.7,00.0,37.9,31.1,26.7,0000.0,0008.95,0004.20,0003.73
2022-07-16 19:53:00,,0829.8,4.99,0.00,29.3,27.9,00.0,37.9,31.2,27.4,0000.0,0008.99,0004.23,0003.76
2022-07-16 19:54:00,,0829.9,5.00,0.00,29.3,28.1,00.0,38.0,31.3,27.7,0000.0,0009.06,0004.28,0003.79
2022-07-16 19:55:00,,0829.9,5.01,0.00,29.4,28.1,00.0,38.0,31.3,28.1,0000.0,0009.11,0004.32,0003.84
2022-07-16 19:56:00,,0829.9,5.00,0.00,29.4,27.5,00.0,37.9,31.3,28.3,0000.0,0008.94,0004.36,0003.87
2022-07-16 19:57:00,,0829.9,4.99,0.00,29.3,27.1,00.0,37.9,31.2,28.4,0000.0,0008.37,0004.39,0003.91
2022-07-16 19:58:00,,0830.0,5.00,0.00,29.3,27.1,00.0,37.9,31.1,28.3,0000.0,0008.01,0004.39,0003.93
2022-07-16 19:59:00,,0830.1,4.99,0.00,29.3,27.3,00.0,37.9,31.0,28.3,0000.0,0008.07,0004.40,0003.95
